Dubuque, IA (52001)

2:22 PM CDT on August 31, 2015 (GMT -0500)
Eagle Valley | | Change Station
CLOSE
Current Station
Personal Weather Station
Location: Dubuque, IA
Elevation: 837 ft
Nearby Weather Stations

Elev 837 ft 42.54 °N, 90.66 °W | Updated 1 minute ago

Partly Cloudy
Partly Cloudy
84.7 °F
Feels Like 90 °F
N
3.0
Wind Variable Wind from NW
Gusts 3.0 mph

Today
High -- | Low -- °F
--% Chance of Precip.
Yesterday
High -- | Low -- °F
Precip. -- in
6:26 AM 7:39 PM
Waning Gibbous, 94% visible
Pressure 30.03 in
Visibility 9.0 miles
Clouds Few 2700 ft
Heat Index 90 °F
Dew Point 72 °F
Humidity 65%
Rainfall 0.00 in
Snow Depth Not available.
UV 8 out of 12
Pollen 10.30 out of 12
Air Quality Not available.
Flu Activity Not available.
METAR KDBQ 311853Z 19007KT 9SM FEW027 27/21 A3004 RMK AO2 SLP167 T02720211
Pressure 30.03 in
Visibility 9.0 miles
Clouds Few 2700 ft
Heat Index 90 °F
Dew Point 72 °F
Humidity 65%
Rainfall 0.00 in
Snow Depth Not available.
UV 8 out of 12
Pollen 10.30 out of 12
Air Quality Not available.
Flu Activity Not available.
METAR KDBQ 311853Z 19007KT 9SM FEW027 27/21 A3004 RMK AO2 SLP167 T02720211

10-Day Weather Forecast

×

Almanac

Astronomy

Aug. 31, 2015 Rise Set
Actual Time
Civil Twilight
Nautical Twilight
Astronomical Twilight
Moon
Length of Visible Light
Length of Day
Tomorrow will be .
, % of the Moon is Illuminated

Today's Extremes

State Highs State Lows

Community

WunderPhotos

Upload Photos

1,851,341 photos uploaded!

WunderBlogs® & News

Nearby

Air Quality

  Air Quality AQ Index Pollutant
Not available.

Snow Depth

Station Depth Elevation

Earthquake Activity

City Distance Mag. Time & Date
Minimum magnitude displayed is 2.5.

Coastal Water Temperatures

Place Temperature

Stations

Nearby Weather Stations

Station Location Temp. Windchill Dew Point Humidity Wind Precip. Elev Updated Type